Previsão horária em Pleubian

Hoje, 3 Março, Quarta-feira

Tempo Temperatura Precipitação Vento Pressão Humidade
00:00 +8°C° 0 mm 4 m/s 769 mmHg 92%
01:00 +8°C° 0.2 mm 4 m/s 769 mmHg 92%
02:00 +8°C° 0.2 mm 4 m/s 769 mmHg 91%
03:00 +8°C° 0.2 mm 5 m/s 769 mmHg 90%
04:00 +8°C° 0.1 mm 5 m/s 769 mmHg 92%
05:00 +7°C° 0.1 mm 5 m/s 769 mmHg 93%
06:00 +7°C° 0.1 mm 5 m/s 769 mmHg 94%
07:00 +8°C° 0 mm 6 m/s 769 mmHg 92%
08:00 +9°C° 0 mm 6 m/s 769 mmHg 90%
09:00 +10°C° 0 mm 6 m/s 769 mmHg 88%
10:00 +11°C° 0.1 mm 6 m/s 769 mmHg 83%
11:00 +13°C° 0.1 mm 6 m/s 769 mmHg 77%
12:00 +14°C° 0.1 mm 6 m/s 769 mmHg 71%
13:00 +14°C° 0.3 mm 6 m/s 769 mmHg 71%
14:00 +14°C° 0.3 mm 6 m/s 768 mmHg 72%
15:00 +13°C° 0.3 mm 6 m/s 768 mmHg 73%
16:00 +12°C° 0.1 mm 5 m/s 768 mmHg 79%
17:00 +10°C° 0.1 mm 5 m/s 768 mmHg 85%
18:00 +10°C° 0.1 mm 4 m/s 768 mmHg 91%
19:00 +8°C° 0 mm 4 m/s 768 mmHg 93%
20:00 +8°C° 0 mm 5 m/s 768 mmHg 94%
21:00 +7°C° 0 mm 5 m/s 768 mmHg 96%
22:00 +7°C° 0 mm 5 m/s 768 mmHg 96%
23:00 +7°C° 0 mm 5 m/s 768 mmHg 96%

Amanhã, 4 Março, Quinta-feira

Tempo Temperatura Precipitação Vento Pressão Humidade
00:00 +7°C° 0 mm 5 m/s 768 mmHg 97%
01:00 +7°C° 0 mm 5 m/s 767 mmHg 97%
02:00 +7°C° 0 mm 5 m/s 767 mmHg 97%
03:00 +7°C° 0 mm 5 m/s 767 mmHg 97%
04:00 +7°C° 0 mm 4 m/s 767 mmHg 96%
05:00 +8°C° 0 mm 4 m/s 767 mmHg 96%
06:00 +8°C° 0 mm 4 m/s 766 mmHg 95%
07:00 +8°C° 0 mm 4 m/s 766 mmHg 94%
08:00 +10°C° 0 mm 3 m/s 767 mmHg 93%
09:00 +10°C° 0 mm 3 m/s 767 mmHg 91%
10:00 +10°C° 0 mm 3 m/s 767 mmHg 89%
11:00 +10°C° 0 mm 3 m/s 767 mmHg 87%
12:00 +11°C° 0 mm 3 m/s 767 mmHg 85%
13:00 +11°C° 0 mm 3 m/s 766 mmHg 84%
14:00 +11°C° 0 mm 3 m/s 766 mmHg 82%
15:00 +11°C° 0 mm 3 m/s 766 mmHg 81%
16:00 +10°C° 0 mm 4 m/s 766 mmHg 84%
17:00 +8°C° 0 mm 5 m/s 766 mmHg 87%
18:00 +8°C° 0 mm 6 m/s 766 mmHg 91%
19:00 +8°C° 0 mm 6 m/s 766 mmHg 91%
20:00 +7°C° 0 mm 6 m/s 767 mmHg 91%
21:00 +6°C° 0 mm 7 m/s 767 mmHg 92%
22:00 +6°C° 0 mm 7 m/s 767 mmHg 91%
23:00 +7°C° 0 mm 6 m/s 767 mmHg 90%

Depois de amanhã, 5 Março, Sexta-feira

Tempo Temperatura Precipitação Vento Pressão Humidade
00:00 +5°C° 0 mm 6 m/s 768 mmHg 89%
01:00 +5°C° 0 mm 6 m/s 768 mmHg 87%
02:00 +5°C° 0 mm 6 m/s 768 mmHg 86%
03:00 +5°C° 0 mm 7 m/s 768 mmHg 84%
04:00 +4°C° 0 mm 7 m/s 768 mmHg 85%
05:00 +4°C° 0 mm 6 m/s 768 mmHg 86%
06:00 +3°C° 0 mm 6 m/s 769 mmHg 86%
07:00 +3°C° 0 mm 7 m/s 769 mmHg 85%
08:00 +4°C° 0 mm 7 m/s 769 mmHg 84%
09:00 +4°C° 0 mm 8 m/s 769 mmHg 82%
10:00 +5°C° 0 mm 8 m/s 770 mmHg 78%
11:00 +5°C° 0 mm 8 m/s 770 mmHg 74%
12:00 +6°C° 0 mm 8 m/s 770 mmHg 71%
13:00 +5°C° 0 mm 8 m/s 770 mmHg 70%
14:00 +5°C° 0 mm 8 m/s 770 mmHg 69%
15:00 +5°C° 0 mm 8 m/s 770 mmHg 69%
16:00 +4°C° 0 mm 8 m/s 770 mmHg 71%
17:00 +2°C° 0 mm 8 m/s 770 mmHg 74%
18:00 +1°C° 0 mm 9 m/s 770 mmHg 76%
19:00 +1°C° 0 mm 8 m/s 771 mmHg 77%
20:00 +1°C° 0 mm 8 m/s 771 mmHg 79%
21:00 +1°C° 0 mm 8 m/s 772 mmHg 80%
22:00 +1°C° 0 mm 8 m/s 772 mmHg 80%
23:00 0°C° 0 mm 7 m/s 772 mmHg 81%

6 Março, Sábado

Tempo Temperatura Precipitação Vento Pressão Humidade
00:00 0°C° 0 mm 7 m/s 772 mmHg 81%
01:00 -1°C° 0 mm 7 m/s 772 mmHg 80%
02:00 -1°C° 0 mm 7 m/s 772 mmHg 79%
03:00 -2°C° 0 mm 6 m/s 772 mmHg 78%
04:00 -2°C° 0 mm 6 m/s 772 mmHg 79%
05:00 -2°C° 0 mm 6 m/s 772 mmHg 80%
06:00 -3°C° 0 mm 6 m/s 772 mmHg 81%
07:00 -1°C° 0 mm 6 m/s 772 mmHg 76%
08:00 +1°C° 0 mm 6 m/s 772 mmHg 71%
09:00 +2°C° 0 mm 7 m/s 772 mmHg 66%
10:00 +3°C° 0 mm 6 m/s 772 mmHg 63%
11:00 +4°C° 0 mm 6 m/s 772 mmHg 59%
12:00 +5°C° 0 mm 6 m/s 772 mmHg 56%
13:00 +5°C° 0 mm 6 m/s 771 mmHg 56%
14:00 +5°C° 0 mm 6 m/s 771 mmHg 56%
15:00 +6°C° 0 mm 5 m/s 771 mmHg 56%
16:00 +5°C° 0 mm 5 m/s 770 mmHg 62%
17:00 +3°C° 0 mm 5 m/s 770 mmHg 68%
18:00 +1°C° 0 mm 5 m/s 770 mmHg 74%
19:00 +1°C° 0 mm 5 m/s 770 mmHg 78%
20:00 +1°C° 0 mm 5 m/s 770 mmHg 81%
21:00 0°C° 0 mm 5 m/s 770 mmHg 85%
22:00 0°C° 0 mm 5 m/s 770 mmHg 85%
23:00 0°C° 0 mm 4 m/s 770 mmHg 85%

7 Março, Domingo

Tempo Temperatura Precipitação Vento Pressão Humidade
00:00 0°C° 0 mm 3 m/s 770 mmHg 84%
01:00 0°C° 0 mm 3 m/s 769 mmHg 82%
02:00 +1°C° 0 mm 2 m/s 769 mmHg 81%
03:00 -1°C° 0 mm 2 m/s 768 mmHg 79%
04:00 -1°C° 0 mm 2 m/s 768 mmHg 78%
05:00 -1°C° 0 mm 2 m/s 768 mmHg 77%
06:00 -1°C° 0 mm 2 m/s 768 mmHg 77%
07:00 +1°C° 0 mm 3 m/s 767 mmHg 73%
08:00 +2°C° 0 mm 3 m/s 767 mmHg 70%
09:00 +4°C° 0 mm 4 m/s 767 mmHg 67%
10:00 +5°C° 0 mm 4 m/s 767 mmHg 62%
11:00 +6°C° 0 mm 4 m/s 767 mmHg 58%
12:00 +7°C° 0 mm 4 m/s 766 mmHg 53%
13:00 +7°C° 0 mm 4 m/s 766 mmHg 54%
14:00 +6°C° 0 mm 4 m/s 766 mmHg 54%
15:00 +6°C° 0 mm 4 m/s 765 mmHg 55%
16:00 +5°C° 0 mm 3 m/s 765 mmHg 59%
17:00 +4°C° 0 mm 3 m/s 765 mmHg 64%
18:00 +2°C° 0 mm 3 m/s 764 mmHg 68%
19:00 +1°C° 0 mm 4 m/s 765 mmHg 71%
20:00 0°C° 0 mm 4 m/s 765 mmHg 74%
21:00 0°C° 0 mm 4 m/s 765 mmHg 77%
22:00 0°C° 0 mm 4 m/s 765 mmHg 80%
23:00 0°C° 0 mm 4 m/s 764 mmHg 83%

8 Março, Segunda-feira

Tempo Temperatura Precipitação Vento Pressão Humidade
00:00 0°C° 0 mm 4 m/s 764 mmHg 86%
01:00 0°C° 0 mm 4 m/s 764 mmHg 86%
02:00 +1°C° 0 mm 3 m/s 764 mmHg 86%
03:00 +1°C° 0 mm 3 m/s 763 mmHg 86%
04:00 +1°C° 0 mm 3 m/s 763 mmHg 84%
05:00 0°C° 0 mm 4 m/s 763 mmHg 83%
06:00 +1°C° 0 mm 4 m/s 763 mmHg 82%
07:00 +3°C° 0 mm 4 m/s 763 mmHg 77%
08:00 +4°C° 0 mm 4 m/s 763 mmHg 73%
09:00 +5°C° 0 mm 5 m/s 763 mmHg 68%
10:00 +5°C° 0 mm 5 m/s 763 mmHg 65%
11:00 +6°C° 0 mm 5 m/s 763 mmHg 62%
12:00 +7°C° 0 mm 5 m/s 763 mmHg 59%
13:00 +7°C° 0 mm 5 m/s 763 mmHg 60%
14:00 +7°C° 0 mm 5 m/s 763 mmHg 60%
15:00 +7°C° 0 mm 5 m/s 762 mmHg 61%
16:00 +5°C° 0 mm 5 m/s 762 mmHg 67%
17:00 +3°C° 0 mm 5 m/s 763 mmHg 73%
18:00 +2°C° 0 mm 5 m/s 763 mmHg 79%
19:00 +1°C° 0 mm 5 m/s 763 mmHg 82%
20:00 +1°C° 0 mm 5 m/s 763 mmHg 84%
21:00 0°C° 0 mm 5 m/s 763 mmHg 87%
22:00 0°C° 0 mm 4 m/s 763 mmHg 87%
23:00 0°C° 0 mm 4 m/s 764 mmHg 87%
Mostrar mais

Necessitamos do seu Consentimento

A Meteoprog e os seus Fornecedores de Serviços podem armazenar e aceder a dados pessoais como cookies, identificadores do dispositivo ou outras tecnologias semelhantes existentes no seu dispositivo e processar estes dados para personalizar conteúdos e anúncios, assim como funcionalidades nas redes sociais e análise de tráfego.

  • Armazenar e/ou aceder a informações no seu dispositivo

    Os cookies, identificadores do dispositivo ou outras informações podem ser armazenados ou acedidos no seu dispositivo, para os fins acima indicados.

  • Anúncios e conteúdos personalizados, medição de anúncios e conteúdos, dados sobre o público-alvo e desenvolvimento de produtos

    Os anúncios e os conteúdos podem ser personalizados com base num perfil. Podem ser adicionados dados adicionais para uma maior personalização dos anúncios e dos conteúdos. A eficácia dos anúncios e dos conteúdos pode ser medida. Podem ser obtidas informações sobre o público que visualizou os anúncios e os conteúdos. Estes dados podem ser usados para desenvolver ou melhorar sistemas, softwares ou a experiência do utilizador.

Ao clicar em "Eu concordo”, permitirá o uso de cookies, identificadores do dispositivo e web beacons mencionados ou outras tecnologias semelhantes. As configurações do navegador do seu dispositivo podem ser alteradas.

Para certos fins, podem ser invocados interesses legítimos ao invés de consentimento. Pode ler mais informação sobre este assunto na nossa Política de Privacidade e Cookies.